Location: Montréal
(45.5017°N, 73.5673°W)
Time: 00:15:52
(UTC-04:00)

ISS - Visible Passes

Search period start: 23 October 2017 00:00
Search period end: 02 November 2017 00:00
Orbit: 401 x 408 km, 51.6° (Epoch: 23 October)

Date Brightness Start Highest point End Pass type
(mag) Time Alt. Az. Time Alt. Az. Time Alt. Az.
29 Oct -0.9 06:23:07 10° S 06:25:22 17° SE 06:27:37 10° E visible
31 Oct -2.4 06:13:44 10° SSW 06:16:46 36° SE 06:19:48 10° ENE visible
01 Nov -1.6 05:23:56 20° SSE 05:24:29 21° SE 05:27:01 10° E visible
01 Nov -3.8 06:57:27 10° WSW 07:00:41 64° NNW 07:03:56 10° ENE visible
